GW4477 Weather Reports


time (UTC)temp
C
wind
direction
speed
KPH
gust
KPH
rain 1hr
cm
rain 24hr
cm
rain mn
cm
humidity
%
barometer
mb
20260903054514 24 360 6.4 12.9 0.00 0.00 0.00 58 1013.6
20260903053024 25 159 6.4 16.1 0.00 0.00 0.00 56 1013.5
20260903051528 25 360 6.4 14.5 0.00 0.00 0.00 56 1013.7
20260903050037 24 360 4.8 12.9 0.00 0.00 0.00 59 1013.8
20260903044516 24 360 4.8 9.7 0.00 0.00 0.00 60 1013.8
20260903043021 24 155 4.8 9.7 0.00 0.00 0.00 60 1013.7
20260903041536 25 173 3.2 8.0 0.00 0.00 0.00 58 1013.7
20260903040034 25 360 4.8 12.9 0.00 0.00 0.00 56 1013.8
20260903034542 26 175 3.2 8.0 0.00 0.00 0.00 54 1013.8
20260903033021 26 199 3.2 8.0 0.00 0.00 0.00 54 1013.8
20260903031523 26 185 3.2 8.0 0.00 0.00 0.00 53 1013.7
20260903030028 27 192 1.6 4.8 0.00 0.00 0.00 51 1013.5
20260903024533 28 360 3.2 8.0 0.00 0.00 0.00 49 1013.3
20260903023029 28 360 3.2 14.5 0.00 0.00 0.00 48 1013.2
20260903023003 28 190 3.2 14.5 0.00 0.00 0.00 48 1013.2
20260903021506 28 196 3.2 8.0 0.00 0.00 0.00 48 1013.0
20260903020003 28 360 3.2 8.0 0.00 0.00 0.00 48 1012.9
20260903014509 28 180 1.6 4.8 0.00 0.00 0.00 47 1012.7
20260903013015 30 228 1.6 8.0 0.00 0.00 0.00 44 1012.6
20260903011503 31 180 3.2 6.4 0.00 0.00 0.00 41 1012.5
20260903010007 32 360 3.2 9.7 0.00 0.00 0.00 39 1012.5
20260903004504 33 360 4.8 14.5 0.00 0.00 0.00 37 1012.5
20260903003011 33 202 8.0 19.3 0.00 0.00 0.00 35 1012.4
20260903001517 34 173 8.0 20.9 0.00 0.00 0.00 34 1012.3
20260903000004 35 148 6.4 19.3 0.00 0.00 0.00 33 1012.3
20260902234504 35 207 11.3 19.3 0.00 0.00 0.00 32 1012.2
20260902233010 35 360 9.7 17.7 0.00 0.00 0.00 32 1012.2
20260902231518 36 210 9.7 17.7 0.00 0.00 0.00 30 1012.3
20260902230004 36 360 1.6 16.1 0.00 0.00 0.00 30 1012.2
20260902224506 36 151 4.8 22.5 0.00 0.00 0.00 30 1012.3
20260902223008 36 251 4.8 12.9 0.00 0.00 0.00 30 1012.4
20260902221516 36 196 8.0 24.1 0.00 0.00 0.00 29 1012.4
20260902220016 37 360 4.8 20.9 0.00 0.00 0.00 31 1012.5
20260902214504 36 181 9.7 17.7 0.00 0.00 0.00 31 1012.5
20260902213022 36 185 8.0 20.9 0.00 0.00 0.00 32 1012.9
20260902211510 36 213 9.7 25.7 0.00 0.00 0.00 31 1013.2
20260902210026 36 210 9.7 20.9 0.00 0.00 0.00 32 1013.4
20260902204526 36 211 12.9 20.9 0.00 0.00 0.00 31 1013.5
20260902203005 36 213 4.8 24.1 0.00 0.00 0.00 29 1013.6
20260902201508 36 229 8.0 17.7 0.00 0.00 0.00 30 1013.7
20260902200016 36 210 4.8 14.5 0.00 0.00 0.00 27 1014.0
20260902194523 36 208 9.7 19.3 0.00 0.00 0.00 27 1014.2
20260902193025 36 242 6.4 16.1 0.00 0.00 0.00 29 1014.3
20260902191516 35 281 4.8 19.3 0.00 0.00 0.00 31 1014.4
20260902190017 35 253 8.0 17.7 0.00 0.00 0.00 33 1014.6
20260902184528 35 283 8.0 17.7 0.00 0.00 0.00 34 1015.1
20260902183028 34 360 6.4 22.5 0.00 0.00 0.00 36 1015.4
20260902181528 34 360 4.8 17.7 0.00 0.00 0.00 37 1015.5
20260902180015 33 360 9.7 17.7 0.00 0.00 0.00 38 1015.7
20260902174518 33 222 8.0 20.9 0.00 0.00 0.00 39 1015.9
20260902173024 33 360 4.8 25.7 0.00 0.00 0.00 40 1016.2
20260902171506 32 360 9.7 19.3 0.00 0.00 0.00 41 1016.2
20260902170005 32 360 6.4 19.3 0.00 0.00 0.00 41 1016.4
20260902164506 32 219 9.7 19.3 0.00 0.00 0.00 41 1016.4
20260902163002 31 360 9.7 20.9 0.00 0.00 0.00 42 1016.5
20260902161502 31 248 9.7 22.5 0.00 0.00 0.00 43 1016.5
20260902160009 30 242 9.7 19.3 0.00 0.00 0.00 46 1016.6
20260902154516 29 217 9.7 22.5 0.00 0.00 0.00 46 1016.7
20260902153014 28 221 6.4 17.7 0.00 0.00 0.00 47 1016.8
20260902151505 28 286 6.4 19.3 0.00 0.00 0.00 50 1016.7
20260902150007 26 208 6.4 20.9 0.00 0.00 0.00 54 1016.6
20260902144518 26 261 6.4 17.7 0.00 0.00 0.00 57 1016.6
20260902143013 25 254 4.8 14.5 0.00 0.00 0.00 58 1016.8
20260902141511 23 217 3.2 12.9 0.00 0.00 0.00 62 1016.8
20260902140004 22 360 3.2 9.7 0.00 0.00 0.00 65 1016.8
20260902134510 21 244 1.6 4.8 0.00 0.00 0.00 68 1017.1
20260902133012 21 360 0.0 6.4 0.00 0.00 0.00 67 1017.0
20260902131514 21 360 3.2 8.0 0.00 0.00 0.00 67 1016.7
20260902130015 21 220 3.2 9.7 0.00 0.00 0.00 68 1016.7
20260902124507 21 195 4.8 12.9 0.00 0.00 0.00 69 1016.6
20260902123013 20 360 3.2 8.0 0.00 0.00 0.00 71 1016.4
20260902121516 19 174 4.8 8.0 0.00 0.00 0.00 74 1016.2
20260902120017 18 360 1.6 6.4 0.00 0.00 0.00 76 1016.1
20260902114518 19 238 0.0 4.8 0.00 0.00 0.00 74 1015.9
20260902113013 20 230 1.6 8.0 0.00 0.00 0.00 72 1016.0
20260902111527 20 200 1.6 6.4 0.00 0.00 0.00 70 1016.0
20260902110023 21 360 4.8 9.7 0.00 0.00 0.00 69 1016.0
20260902104524 21 194 3.2 11.3 0.00 0.00 0.00 68 1016.1
20260902103022 21 182 3.2 11.3 0.00 0.00 0.00 67 1016.2
20260902101521 21 205 4.8 12.9 0.00 0.00 0.00 65 1016.1
20260902100023 22 360 6.4 12.9 0.00 0.00 0.00 64 1016.1
20260902094528 22 360 4.8 14.5 0.00 0.00 0.00 63 1016.1
20260902093026 22 360 4.8 9.7 0.00 0.00 0.00 63 1016.2
20260902091527 22 360 4.8 9.7 0.00 0.00 0.00 63 1016.2
20260902090023 22 197 3.2 9.7 0.00 0.00 0.00 62 1016.2
20260902084527 23 177 4.8 12.9 0.00 0.00 0.00 61 1016.3
20260902083027 23 193 4.8 12.9 0.00 0.00 0.00 61 1016.3
20260902081512 23 218 4.8 9.7 0.00 0.00 0.00 62 1016.3
20260902080020 23 219 3.2 12.9 0.00 0.00 0.00 63 1016.2
20260902074526 22 185 6.4 11.3 0.00 0.00 0.00 64 1016.2
20260902073008 22 177 3.2 8.0 0.00 0.00 0.00 66 1016.1
20260902071518 22 219 3.2 9.7 0.00 0.00 0.00 65 1016.1
20260902070017 22 167 4.8 12.9 0.00 0.00 0.00 68 1016.1
20260902064527 21 202 1.6 4.8 0.00 0.00 0.00 70 1016.2
20260902063038 21 182 0.0 3.2 0.00 0.00 0.00 70 1016.2
20260902061510 21 163 0.0 3.2 0.00 0.00 0.00 69 1016.2
20260902060015 21 186 0.0 4.8 0.00 0.00 0.00 68 1016.1